Location: Newark
(49.3000°N, 9.4667°E)
Time: 10:50:40
(UTC+00:00)

Courier 1B Rocket - All Passes

Search period start: 20 May 2019 00:00
Search period end: 30 May 2019 00:00
Orbit: 920 x 1202 km, 28.2° (Epoch: 20 May)

Date Brightness Start Highest point End Pass type
(mag) Time Alt. Az. Time Alt. Az. Time Alt. Az.
20 May - 16:44:19 10° SSE 16:44:42 10° SSE 16:45:04 10° SSE daylight
20 May - 18:33:16 10° SSW 18:36:50 14° S 18:40:18 10° SSE daylight
20 May - 20:27:28 10° SSW 20:28:54 11° SSW 20:30:19 10° S visible
21 May - 17:32:37 10° SSW 17:36:05 13° S 17:39:29 10° SSE daylight
21 May - 19:25:14 10° SSW 19:28:14 13° S 19:31:10 10° SSE daylight
22 May - 16:32:28 10° S 16:35:20 12° SSE 16:38:12 10° SSE daylight
22 May - 18:23:52 10° SSW 18:27:30 14° S 18:31:06 10° SSE daylight
23 May - 15:33:23 10° S 15:34:37 10° SSE 15:35:51 10° SSE daylight
23 May - 17:22:56 10° SSW 17:26:46 14° S 17:30:33 10° SSE daylight
23 May - 19:16:45 10° SSW 19:18:53 11° SSW 19:20:59 10° S daylight
24 May - 16:22:21 10° SSW 16:26:00 14° S 16:29:37 10° SE daylight
24 May - 18:14:51 10° SW 18:18:10 13° S 18:21:28 10° SSE daylight
25 May - 15:22:16 10° S 15:25:15 12° SSE 15:28:14 10° SE daylight
25 May - 17:13:36 10° SSW 17:17:26 14° S 17:21:13 10° SSE daylight
26 May - 14:23:21 10° S 14:24:32 10° SSE 14:25:42 10° SSE daylight
26 May - 16:12:46 10° SSW 16:16:39 15° S 16:20:33 10° SSE daylight
26 May - 18:06:24 10° SSW 18:08:49 12° SSW 18:11:13 10° S daylight
27 May - 15:12:18 10° SSW 15:15:54 14° S 15:19:31 10° SE daylight
27 May - 17:04:40 10° SW 17:08:05 13° S 17:11:29 10° SSE daylight
28 May - 14:12:21 10° S 14:15:10 12° SSE 14:18:00 10° SE daylight
28 May - 16:03:33 10° SSW 16:07:20 14° S 16:11:07 10° SSE daylight
29 May - 15:02:50 10° SSW 15:06:33 14° S 15:10:21 10° SSE daylight
29 May - 16:56:21 10° SSW 16:58:43 12° SSW 17:01:06 10° S daylight
